Regional Weather Roundup
Issued by NWS Cleveland, OH

Home | Current Version | Previous Version | Graphics & Text | Print | Product List | Glossary On
Versions: 1 2 3 4 5 6 7 8 9 10 11 12 13 14 15 16 17 18 19 20 21 22 23 24 25 26 27 28 29 30 31 32 33 34 35 36 37 38 39 40 41 42 43 44 45 46 47 48 49 50
000
ASUS41 KCLE 190102
RWRCLE
OHIO REGIONAL WEATHER ROUNDUP
NATIONAL WEATHER SERVICE CLEVELAND, OH
900 PM EDT SAT APR 18 2015

NOTE: "FAIR" INDICATES FEW OR NO CLOUDS BELOW 12,000 FEET WITH NO
SIGNIFICANT WEATHER AND/OR OBSTRUCTIONS TO VISIBILITY.

OHZ001>008-015>018-024>027-034-035-043-044-190200-
   NORTHWEST OHIO

CITY           SKY/WX    TMP DP  RH WIND       PRES   REMARKS
DEFIANCE       CLOUDY    59  25  27 E13G20    30.06R
FINDLAY        CLOUDY    59  35  40 NE18      30.05R
TOLEDO EXPRESS MOCLDY    57  19  22 NE17G25   30.07F
TOLEDO EXEC    MOCLDY    56  31  38 NE10      30.09F
LIMA           CLOUDY    60  38  43 NE13      30.04R
$$

OHZ009>014-019>023-028>033-038-089-190200-
   NORTHEAST OHIO

CITY           SKY/WX    TMP DP  RH WIND       PRES   REMARKS
CLE-HOPKINS    CLOUDY    55  31  39 NE10      30.11S
CLE-LAKEFRONT  MOCLDY    50  41  71 NE5       30.09S
CUY CO. ARPT   MOCLDY    54  37  54 NE7       30.11R
LORAIN-ELYRIA  MOCLDY    55  36  48 NE8       30.09F
ASHTABULA      MOCLDY    55  33  43 NE3       30.13R
AKRON-CANTON   MOCLDY    63  38  39 NE12      30.07S
WOOSTER        MOCLDY    59  39  47 NE12      30.06F
MANSFIELD      CLOUDY    59  36  42 NE12      30.06F
YOUNGSTOWN     MOCLDY    59  35  40 N9        30.09R
$$

OHZ042-051>053-060>062-070>072-077>081-190200-
  SOUTHWEST OHIO

CITY           SKY/WX    TMP DP  RH WIND       PRES   REMARKS
CINC-COVINGTON MOCLDY    70  46  42 E8        29.97R
CINC-LUNKEN    PTCLDY    65  52  62 CALM      29.97R
HAMILTON       MOCLDY    65  52  62 NE5       29.98R
DAYTON         CLOUDY    68  48  48 NE12      30.01R
WRIGHT-PAT AFB CLOUDY    68  48  48 CALM      30.00R
DAYTON GENERAL MOCLDY    68  47  46 E3        29.98R
WILMINGTON     MOCLDY    67  47  48 NE5       29.99R
$$

OHZ036-037-039>041-045>050-054>059-063>069-073>076-082>088-190200-
  CENTRAL AND SOUTHEAST OHIO

CITY           SKY/WX    TMP DP  RH WIND       PRES   REMARKS
COLUMBUS       CLOUDY    69  47  45 NE9       30.01R
OSU AIRPORT    CLOUDY    69  46  43 NE8       30.01R
BOLTON FIELD   NOT AVBL
RICKENBACK AFB NOT AVBL
NEWARK         CLOUDY    70  45  40 NE6       30.01R
MARION         CLOUDY    60  40  47 NE13      30.05R
LANCASTER      CLOUDY    66  49  54 NE7       30.02R
ZANESVILLE     CLOUDY    68  43  40 NE7       30.01R
NEW PHILLY     CLOUDY    70  46  42 NE8       30.04S
$$



USA.gov is the U.S. government's official web portal to all federal, state and local government web resources and services.